Time,TemperatureF,DewpointF,PressureIn,WindDirection,WindDirectionDegrees,WindSpeedMPH,WindSpeedGustMPH,Humidity,HourlyPrecipIn,Conditions,Clouds,dailyrainin,SoftwareType,DateUTC
2013-09-05 00:01:00,67.0,60.2,30.10,North,349,0.0,0.0,79,0.00,,,0.00,VWS V13.01,2013-09-05 05:01:00,
2013-09-05 00:06:00,66.6,60.6,30.10,North,349,0.0,0.0,81,0.00,,,0.00,VWS V13.01,2013-09-05 05:06:00,
2013-09-05 00:11:00,66.6,61.3,30.10,North,349,0.0,0.0,83,0.00,,,0.00,VWS V13.01,2013-09-05 05:11:00,
2013-09-05 00:16:00,66.4,61.4,30.10,North,350,0.0,0.0,84,0.00,,,0.00,VWS V13.01,2013-09-05 05:16:00,
2013-09-05 00:21:00,66.1,60.8,30.10,North,350,0.0,0.0,83,0.00,,,0.00,VWS V13.01,2013-09-05 05:21:00,
2013-09-05 00:26:00,66.1,61.1,30.10,NW,310,0.0,0.0,84,0.00,,,0.00,VWS V13.01,2013-09-05 05:26:00,
2013-09-05 00:31:00,65.9,60.9,30.10,NNE,30,0.0,0.0,84,0.00,,,0.00,VWS V13.01,2013-09-05 05:31:00,
2013-09-05 00:36:00,65.9,60.9,30.10,NNE,30,0.0,0.0,84,0.00,,,0.00,VWS V13.01,2013-09-05 05:36:00,
2013-09-05 00:41:00,66.1,61.1,30.10,NNE,30,0.0,0.0,84,0.00,,,0.00,VWS V13.01,2013-09-05 05:41:00,
2013-09-05 00:46:00,66.2,60.9,30.10,NNE,30,0.0,0.0,83,0.00,,,0.00,VWS V13.01,2013-09-05 05:46:00,
2013-09-05 00:51:00,66.2,60.6,30.10,NNE,30,0.0,0.0,82,0.00,,,0.00,VWS V13.01,2013-09-05 05:51:00,
2013-09-05 00:59:00,66.1,61.8,30.10,West,272,0.0,0.0,86,0.00,,,0.00,VWS V13.01,2013-09-05 05:59:00,
2013-09-05 01:04:00,65.9,61.6,30.10,West,272,0.0,0.0,86,0.00,,,0.00,VWS V13.01,2013-09-05 06:04:00,
2013-09-05 01:09:00,65.7,61.4,30.10,West,272,0.0,0.0,86,0.00,,,0.00,VWS V13.01,2013-09-05 06:09:00,
2013-09-05 01:14:00,65.7,61.4,30.10,West,272,0.0,0.0,86,0.00,,,0.00,VWS V13.01,2013-09-05 06:14:00,
2013-09-05 01:19:00,65.5,61.2,30.10,West,272,0.0,0.0,86,0.00,,,0.00,VWS V13.01,2013-09-05 06:19:00,
2013-09-05 01:24:00,65.3,61.4,30.10,West,272,0.0,0.0,87,0.00,,,0.00,VWS V13.01,2013-09-05 06:24:00,
2013-09-05 01:29:00,65.2,61.2,30.10,West,272,0.0,0.0,87,0.00,,,0.00,VWS V13.01,2013-09-05 06:29:00,
2013-09-05 01:34:00,65.2,61.2,30.10,West,272,0.0,0.0,87,0.00,,,0.00,VWS V13.01,2013-09-05 06:34:00,
2013-09-05 01:39:00,65.0,61.7,30.10,West,272,0.0,0.0,89,0.00,,,0.00,VWS V13.01,2013-09-05 06:39:00,
2013-09-05 01:44:00,65.0,62.0,30.10,West,272,0.0,0.0,90,0.00,,,0.00,VWS V13.01,2013-09-05 06:44:00,
2013-09-05 01:49:00,65.2,62.2,30.10,West,272,0.0,0.0,90,0.00,,,0.00,VWS V13.01,2013-09-05 06:49:00,
2013-09-05 01:54:00,65.0,61.7,30.10,West,272,0.0,0.0,89,0.00,,,0.00,VWS V13.01,2013-09-05 06:54:00,
2013-09-05 01:59:00,64.8,61.5,30.10,West,272,0.0,0.0,89,0.00,,,0.00,VWS V13.01,2013-09-05 06:59:00,
2013-09-05 02:04:00,64.3,61.3,30.10,West,272,0.0,0.0,90,0.00,,,0.00,VWS V13.01,2013-09-05 07:04:00,
2013-09-05 02:09:00,64.1,61.1,30.10,West,272,0.0,0.0,90,0.00,,,0.00,VWS V13.01,2013-09-05 07:09:00,
2013-09-05 02:13:00,63.7,61.4,30.10,West,272,0.0,0.0,92,0.00,,,0.00,VWS V13.01,2013-09-05 07:13:00,
2013-09-05 02:18:00,63.5,61.2,30.10,West,272,0.0,0.0,92,0.00,,,0.00,VWS V13.01,2013-09-05 07:18:00,
2013-09-05 02:23:00,63.4,61.3,30.10,North,356,0.0,0.0,93,0.00,,,0.00,VWS V13.01,2013-09-05 07:23:00,
2013-09-05 02:28:00,63.4,61.9,30.10,North,357,0.0,0.0,95,0.00,,,0.00,VWS V13.01,2013-09-05 07:28:00,
2013-09-05 02:33:00,63.2,61.7,30.10,North,357,0.0,0.0,95,0.00,,,0.00,VWS V13.01,2013-09-05 07:33:00,
2013-09-05 02:38:00,63.2,61.7,30.10,North,357,0.0,0.0,95,0.00,,,0.00,VWS V13.01,2013-09-05 07:38:00,
2013-09-05 02:43:00,63.2,61.7,30.10,North,357,0.0,0.0,95,0.00,,,0.00,VWS V13.01,2013-09-05 07:43:00,
2013-09-05 02:48:00,63.2,61.7,30.07,North,357,0.0,0.0,95,0.00,,,0.00,VWS V13.01,2013-09-05 07:48:00,
2013-09-05 02:53:00,63.2,61.7,30.07,North,357,0.0,0.0,95,0.00,,,0.00,VWS V13.01,2013-09-05 07:53:00,
2013-09-05 02:58:00,63.2,61.7,30.07,North,357,0.0,0.0,95,0.00,,,0.00,VWS V13.01,2013-09-05 07:58:00,
2013-09-05 03:03:00,63.0,61.2,30.10,North,357,0.0,0.0,94,0.00,,,0.00,VWS V13.01,2013-09-05 08:03:00,
2013-09-05 03:08:00,62.8,61.1,30.10,North,357,0.0,0.0,94,0.00,,,0.00,VWS V13.01,2013-09-05 08:08:00,
2013-09-05 03:13:00,62.8,61.4,30.10,North,357,0.0,0.0,95,0.00,,,0.00,VWS V13.01,2013-09-05 08:13:00,
2013-09-05 03:18:00,62.6,61.2,30.10,North,357,0.0,0.0,95,0.00,,,0.00,VWS V13.01,2013-09-05 08:18:00,
2013-09-05 03:23:00,62.5,61.3,30.10,North,357,0.0,0.0,96,0.00,,,0.00,VWS V13.01,2013-09-05 08:23:00,
2013-09-05 03:28:00,62.5,61.6,30.10,North,357,0.0,0.0,97,0.00,,,0.00,VWS V13.01,2013-09-05 08:28:00,
2013-09-05 03:33:00,62.5,61.9,30.10,North,356,0.0,0.0,98,0.00,,,0.00,VWS V13.01,2013-09-05 08:33:00,
2013-09-05 03:38:00,62.5,62.5,30.10,North,356,0.0,0.0,100,0.00,,,0.00,VWS V13.01,2013-09-05 08:38:00,
2013-09-05 03:43:00,62.5,62.5,30.10,North,356,0.0,0.0,100,0.00,,,0.00,VWS V13.01,2013-09-05 08:43:00,
2013-09-05 03:48:00,62.3,62.3,30.10,North,356,0.0,0.0,100,0.00,,,0.00,VWS V13.01,2013-09-05 08:48:00,
2013-09-05 03:53:00,62.1,62.1,30.10,North,356,0.0,0.0,100,0.00,,,0.00,VWS V13.01,2013-09-05 08:53:00,
2013-09-05 03:58:00,62.1,62.1,30.10,North,356,0.0,0.0,100,0.00,,,0.00,VWS V13.01,2013-09-05 08:58:00,
2013-09-05 04:03:00,61.9,61.9,30.10,North,356,0.0,0.0,100,0.00,,,0.00,VWS V13.01,2013-09-05 09:03:00,
2013-09-05 04:08:00,61.9,61.9,30.10,North,356,0.0,0.0,100,0.00,,,0.00,VWS V13.01,2013-09-05 09:08:00,
2013-09-05 04:13:00,61.7,61.7,30.10,North,356,0.0,0.0,100,0.00,,,0.00,VWS V13.01,2013-09-05 09:13:00,
2013-09-05 04:18:00,61.7,61.7,30.10,North,356,0.0,0.0,100,0.00,,,0.00,VWS V13.01,2013-09-05 09:18:00,
2013-09-05 04:23:00,61.7,61.7,30.10,North,356,0.0,0.0,100,0.00,,,0.00,VWS V13.01,2013-09-05 09:23:00,
2013-09-05 04:28:00,61.6,61.6,30.10,North,356,0.0,0.0,100,0.00,,,0.00,VWS V13.01,2013-09-05 09:28:00,
2013-09-05 04:33:00,61.4,61.4,30.07,North,356,0.0,0.0,100,0.00,,,0.00,VWS V13.01,2013-09-05 09:33:00,
2013-09-05 04:38:00,61.4,61.4,30.07,North,356,0.0,0.0,100,0.00,,,0.00,VWS V13.01,2013-09-05 09:38:00,
2013-09-05 04:43:00,61.2,61.2,30.07,North,356,0.0,0.0,100,0.00,,,0.00,VWS V13.01,2013-09-05 09:43:00,
2013-09-05 04:48:00,61.2,61.2,30.10,North,356,0.0,0.0,100,0.00,,,0.00,VWS V13.01,2013-09-05 09:48:00,
2013-09-05 04:53:00,61.2,61.2,30.10,North,356,0.0,0.0,100,0.00,,,0.00,VWS V13.01,2013-09-05 09:53:00,
2013-09-05 04:58:00,61.0,61.0,30.10,North,356,0.0,0.0,100,0.00,,,0.00,VWS V13.01,2013-09-05 09:58:00,
2013-09-05 05:03:00,61.0,61.0,30.10,North,356,0.0,0.0,100,0.00,,,0.00,VWS V13.01,2013-09-05 10:03:00,
2013-09-05 05:08:00,60.8,60.8,30.10,North,356,0.0,0.0,100,0.00,,,0.00,VWS V13.01,2013-09-05 10:08:00,
2013-09-05 05:13:00,60.8,60.8,30.10,North,356,0.0,0.0,100,0.00,,,0.00,VWS V13.01,2013-09-05 10:13:00,
2013-09-05 05:18:00,61.0,61.0,30.10,North,356,0.0,0.0,100,0.00,,,0.00,VWS V13.01,2013-09-05 10:18:00,
2013-09-05 05:23:00,61.0,61.0,30.10,North,357,0.0,0.0,100,0.00,,,0.00,VWS V13.01,2013-09-05 10:23:00,
2013-09-05 05:28:00,60.8,60.8,30.10,North,356,0.0,0.0,100,0.00,,,0.00,VWS V13.01,2013-09-05 10:28:00,
2013-09-05 05:33:00,60.8,60.8,30.10,North,356,0.0,0.0,100,0.00,,,0.00,VWS V13.01,2013-09-05 10:33:00,
2013-09-05 05:38:00,60.7,60.7,30.10,North,356,0.0,0.0,100,0.00,,,0.00,VWS V13.01,2013-09-05 10:38:00,
2013-09-05 05:43:00,60.8,60.8,30.10,North,356,0.0,0.0,100,0.00,,,0.00,VWS V13.01,2013-09-05 10:43:00,
2013-09-05 05:48:00,60.7,60.7,30.10,North,356,0.0,0.0,100,0.00,,,0.00,VWS V13.01,2013-09-05 10:48:00,
2013-09-05 05:53:00,60.5,60.5,30.10,North,356,0.0,0.0,100,0.00,,,0.00,VWS V13.01,2013-09-05 10:53:00,
2013-09-05 05:58:00,60.5,60.5,30.10,North,356,0.0,0.0,100,0.00,,,0.00,VWS V13.01,2013-09-05 10:58:00,
2013-09-05 06:03:00,60.3,60.3,30.10,North,356,0.0,0.0,100,0.00,,,0.00,VWS V13.01,2013-09-05 11:03:00,
2013-09-05 06:08:00,60.3,60.3,30.10,North,356,0.0,0.0,100,0.00,,,0.00,VWS V13.01,2013-09-05 11:08:00,
2013-09-05 06:13:00,60.5,60.5,30.10,North,356,0.0,0.0,100,0.00,,,0.00,VWS V13.01,2013-09-05 11:13:00,
2013-09-05 06:18:00,60.3,60.3,30.13,North,356,0.0,0.0,100,0.00,,,0.00,VWS V13.01,2013-09-05 11:18:00,
2013-09-05 06:23:00,60.3,60.3,30.13,North,356,0.0,0.0,100,0.00,,,0.00,VWS V13.01,2013-09-05 11:23:00,
2013-09-05 06:28:00,60.1,60.1,30.13,North,356,0.0,0.0,100,0.00,,,0.00,VWS V13.01,2013-09-05 11:28:00,
2013-09-05 06:33:00,60.1,60.1,30.13,North,356,0.0,0.0,100,0.00,,,0.00,VWS V13.01,2013-09-05 11:33:00,
2013-09-05 06:38:00,60.1,60.1,30.13,North,356,0.0,0.0,100,0.00,,,0.00,VWS V13.01,2013-09-05 11:38:00,
2013-09-05 06:43:00,60.1,60.1,30.13,North,356,0.0,0.0,100,0.00,,,0.00,VWS V13.01,2013-09-05 11:43:00,
2013-09-05 06:48:00,60.1,60.1,30.13,North,357,0.0,0.0,100,0.00,,,0.00,VWS V13.01,2013-09-05 11:48:00,
2013-09-05 06:53:00,60.1,60.1,30.13,North,356,0.0,0.0,100,0.00,,,0.31,VWS V13.01,2013-09-05 11:53:00,
2013-09-05 06:58:00,60.1,60.1,30.13,North,356,0.0,0.0,100,0.00,,,0.00,VWS V13.01,2013-09-05 11:58:00,
2013-09-05 07:03:00,59.9,59.9,30.13,North,356,0.0,0.0,100,0.00,,,0.00,VWS V13.01,2013-09-05 12:03:00,
2013-09-05 07:08:00,59.9,59.9,30.13,North,356,0.0,0.0,100,0.00,,,0.00,VWS V13.01,2013-09-05 12:08:00,
2013-09-05 07:13:00,59.9,59.9,30.13,North,356,0.0,0.0,100,0.00,,,0.00,VWS V13.01,2013-09-05 12:13:00,
2013-09-05 07:18:00,59.9,59.9,30.13,North,356,0.0,0.0,100,0.00,,,0.00,VWS V13.01,2013-09-05 12:18:00,
2013-09-05 07:23:00,59.9,59.9,30.13,North,356,0.0,0.0,100,0.00,,,0.00,VWS V13.01,2013-09-05 12:23:00,
2013-09-05 07:28:00,60.1,60.1,30.13,North,356,0.0,0.0,100,0.00,,,0.00,VWS V13.01,2013-09-05 12:28:00,
2013-09-05 07:33:00,60.1,60.1,30.13,North,356,0.0,0.0,100,0.00,,,0.00,VWS V13.01,2013-09-05 12:33:00,
2013-09-05 07:38:00,60.3,60.3,30.13,North,356,0.0,0.0,100,0.00,,,0.00,VWS V13.01,2013-09-05 12:38:00,
2013-09-05 07:43:00,60.5,60.5,30.13,North,356,0.0,0.0,100,0.00,,,0.00,VWS V13.01,2013-09-05 12:43:00,
2013-09-05 07:48:00,60.8,60.8,30.13,North,356,0.0,0.0,100,0.00,,,0.00,VWS V13.01,2013-09-05 12:48:00,
2013-09-05 07:52:00,61.2,61.2,30.13,North,356,0.0,0.0,100,0.00,,,0.00,VWS V13.01,2013-09-05 12:52:00,
2013-09-05 07:57:00,61.4,61.4,30.13,ENE,67,0.0,0.0,100,0.00,,,0.00,VWS V13.01,2013-09-05 12:57:00,
2013-09-05 08:02:00,61.7,61.7,30.13,ENE,67,0.0,0.0,100,0.00,,,0.00,VWS V13.01,2013-09-05 13:02:00,
2013-09-05 08:07:00,62.1,62.1,30.13,ENE,67,0.0,0.0,100,0.00,,,0.00,VWS V13.01,2013-09-05 13:07:00,
2013-09-05 08:12:00,63.2,63.2,30.13,NE,38,0.0,0.0,100,0.00,,,0.00,VWS V13.01,2013-09-05 13:12:00,
2013-09-05 08:17:00,64.1,64.1,30.13,NNE,33,0.0,0.0,100,0.00,,,0.00,VWS V13.01,2013-09-05 13:17:00,
2013-09-05 08:22:00,65.0,65.0,30.13,NNE,33,0.0,0.0,100,0.00,,,0.00,VWS V13.01,2013-09-05 13:22:00,
2013-09-05 08:27:00,66.2,66.2,30.13,NE,35,0.0,0.0,100,0.00,,,0.00,VWS V13.01,2013-09-05 13:27:00,
2013-09-05 08:32:00,67.3,67.3,30.13,NE,36,0.0,0.0,100,0.00,,,0.00,VWS V13.01,2013-09-05 13:32:00,
2013-09-05 08:37:00,67.7,67.7,30.13,NNE,23,0.0,0.0,100,0.00,,,0.00,VWS V13.01,2013-09-05 13:37:00,
2013-09-05 08:42:00,68.8,66.7,30.13,North,8,0.0,0.0,93,0.00,,,0.00,VWS V13.01,2013-09-05 13:42:00,
2013-09-05 08:47:00,69.7,66.6,30.13,North,8,0.0,0.0,90,0.00,,,0.00,VWS V13.01,2013-09-05 13:47:00,
2013-09-05 08:52:00,70.4,65.3,30.13,North,8,0.0,0.0,84,0.00,,,0.00,VWS V13.01,2013-09-05 13:52:00,
2013-09-05 08:57:00,70.9,65.8,30.13,North,8,0.0,0.0,84,0.00,,,0.00,VWS V13.01,2013-09-05 13:57:00,
2013-09-05 09:02:00,71.1,65.3,30.16,WSW,255,0.0,0.0,82,0.00,,,0.00,VWS V13.01,2013-09-05 14:02:00,
2013-09-05 09:07:00,71.3,65.2,30.16,WSW,255,0.0,0.0,81,0.00,,,0.00,VWS V13.01,2013-09-05 14:07:00,
2013-09-05 09:12:00,71.5,64.6,30.16,WSW,255,0.0,0.0,79,0.00,,,0.00,VWS V13.01,2013-09-05 14:12:00,
2013-09-05 09:17:00,72.4,64.0,30.16,East,84,0.0,2.7,75,0.00,,,0.00,VWS V13.01,2013-09-05 14:17:00,
2013-09-05 09:22:00,74.0,64.0,30.16,NE,42,0.0,0.0,71,0.00,,,0.00,VWS V13.01,2013-09-05 14:22:00,
2013-09-05 09:27:00,75.2,64.0,30.16,NE,43,0.0,2.2,68,0.00,,,0.00,VWS V13.01,2013-09-05 14:27:00,
2013-09-05 09:32:00,75.8,63.6,30.16,NE,39,2.7,2.7,66,0.00,,,0.00,VWS V13.01,2013-09-05 14:32:00,
2013-09-05 09:37:00,76.5,64.7,30.16,ESE,106,4.0,4.0,67,0.00,,,0.00,VWS V13.01,2013-09-05 14:37:00,
2013-09-05 09:42:00,76.5,63.4,30.16,ESE,117,2.2,4.0,64,0.00,,,0.00,VWS V13.01,2013-09-05 14:42:00,
2013-09-05 09:47:00,76.7,64.0,30.16,East,83,0.0,2.2,65,0.00,,,0.00,VWS V13.01,2013-09-05 14:47:00,
2013-09-05 09:52:00,77.2,63.7,30.16,NE,55,2.2,3.6,63,0.00,,,0.00,VWS V13.01,2013-09-05 14:52:00,
2013-09-05 09:57:00,77.8,63.7,30.16,East,80,3.6,3.6,62,0.00,,,0.00,VWS V13.01,2013-09-05 14:57:00,
2013-09-05 10:02:00,77.8,64.2,30.16,ESE,120,3.1,3.1,63,0.00,,,0.00,VWS V13.01,2013-09-05 15:02:00,
2013-09-05 10:07:00,77.6,63.5,30.16,East,83,2.2,4.0,62,0.00,,,0.00,VWS V13.01,2013-09-05 15:07:00,
2013-09-05 10:12:00,77.8,63.7,30.16,NE,49,2.7,4.9,62,0.00,,,0.00,VWS V13.01,2013-09-05 15:12:00,
2013-09-05 10:17:00,78.1,64.1,30.16,ENE,72,3.6,3.6,62,0.00,,,0.00,VWS V13.01,2013-09-05 15:17:00,
2013-09-05 10:22:00,78.3,63.8,30.16,NNE,29,0.0,0.0,61,0.00,,,0.00,VWS V13.01,2013-09-05 15:22:00,
2013-09-05 10:27:00,79.0,64.0,30.16,NNW,341,3.1,3.1,60,0.00,,,0.00,VWS V13.01,2013-09-05 15:27:00,
2013-09-05 10:32:00,79.7,65.1,30.16,NE,55,0.0,0.0,61,0.00,,,0.00,VWS V13.01,2013-09-05 15:32:00,
2013-09-05 10:37:00,81.2,65.5,30.16,ENE,62,2.7,3.1,59,0.00,,,0.00,VWS V13.01,2013-09-05 15:37:00,
2013-09-05 10:42:00,81.0,64.8,30.16,SE,128,3.6,3.6,58,0.00,,,0.00,VWS V13.01,2013-09-05 15:42:00,
2013-09-05 10:47:00,80.3,64.7,30.16,East,94,0.0,2.7,59,0.00,,,0.00,VWS V13.01,2013-09-05 15:47:00,
2013-09-05 10:52:00,80.6,65.0,30.16,ENE,65,3.1,3.6,59,0.00,,,0.00,VWS V13.01,2013-09-05 15:52:00,
2013-09-05 10:57:00,81.7,65.5,30.16,NE,52,2.2,2.7,58,0.00,,,0.00,VWS V13.01,2013-09-05 15:57:00,
2013-09-05 11:02:00,82.4,65.7,30.16,NNE,16,3.1,3.1,57,0.00,,,0.00,VWS V13.01,2013-09-05 16:02:00,
2013-09-05 11:07:00,82.4,65.7,30.16,West,278,2.2,2.2,57,0.00,,,0.00,VWS V13.01,2013-09-05 16:07:00,
2013-09-05 11:12:00,81.5,65.3,30.16,SE,124,3.6,3.6,58,0.00,,,0.00,VWS V13.01,2013-09-05 16:12:00,
2013-09-05 11:17:00,81.4,65.2,30.16,ESE,115,3.1,3.6,58,0.00,,,0.00,VWS V13.01,2013-09-05 16:17:00,
2013-09-05 11:22:00,81.0,64.8,30.16,North,8,4.0,4.0,58,0.00,,,0.00,VWS V13.01,2013-09-05 16:22:00,
2013-09-05 11:27:00,81.4,65.2,30.16,ENE,61,3.1,3.1,58,0.00,,,0.00,VWS V13.01,2013-09-05 16:27:00,
2013-09-05 11:32:00,82.4,65.7,30.16,SSE,159,5.8,5.8,57,0.00,,,0.00,VWS V13.01,2013-09-05 16:32:00,
2013-09-05 11:37:00,81.9,65.2,30.16,ESE,120,3.1,3.1,57,0.00,,,0.00,VWS V13.01,2013-09-05 16:37:00,
2013-09-05 11:42:00,82.1,64.8,30.16,NNW,342,4.9,5.4,56,0.00,,,0.00,VWS V13.01,2013-09-05 16:42:00,
2013-09-05 11:47:00,82.4,63.1,30.16,ENE,57,4.0,4.0,52,0.00,,,0.00,VWS V13.01,2013-09-05 16:47:00,
2013-09-05 11:52:00,83.0,64.6,30.16,North,358,3.6,3.6,54,0.00,,,0.00,VWS V13.01,2013-09-05 16:52:00,
2013-09-05 11:57:00,83.7,65.8,30.16,ENE,61,3.1,5.4,55,0.00,,,0.00,VWS V13.01,2013-09-05 16:57:00,
2013-09-05 12:02:00,83.9,64.9,30.16,SSE,162,2.2,4.9,53,0.00,,,0.00,VWS V13.01,2013-09-05 17:02:00,
2013-09-05 12:07:00,83.7,64.8,30.16,ENE,58,0.0,2.2,53,0.00,,,0.00,VWS V13.01,2013-09-05 17:07:00,
2013-09-05 12:12:00,83.9,64.4,30.16,North,355,2.7,3.1,52,0.00,,,0.00,VWS V13.01,2013-09-05 17:12:00,
2013-09-05 12:17:00,83.9,64.9,30.16,ESE,110,3.1,3.1,53,0.00,,,0.00,VWS V13.01,2013-09-05 17:17:00,
2013-09-05 12:22:00,83.5,64.1,30.16,SE,125,2.7,5.4,52,0.00,,,0.00,VWS V13.01,2013-09-05 17:22:00,
2013-09-05 12:27:00,83.5,64.6,30.16,East,100,3.1,3.1,53,0.00,,,0.00,VWS V13.01,2013-09-05 17:27:00,
2013-09-05 12:32:00,84.1,64.6,30.13,NW,319,2.7,3.1,52,0.00,,,0.00,VWS V13.01,2013-09-05 17:32:00,
2013-09-05 12:37:00,85.0,64.8,30.13,WSW,246,2.7,4.0,51,0.00,,,0.00,VWS V13.01,2013-09-05 17:37:00,
2013-09-05 12:42:00,84.6,64.5,30.13,NE,34,2.7,2.7,51,0.00,,,0.00,VWS V13.01,2013-09-05 17:42:00,
2013-09-05 12:47:00,85.3,65.7,30.13,NNE,26,2.7,2.7,52,0.00,,,0.00,VWS V13.01,2013-09-05 17:47:00,
2013-09-05 12:52:00,86.2,65.4,30.13,North,354,3.1,3.1,50,0.00,,,0.00,VWS V13.01,2013-09-05 17:52:00,
2013-09-05 12:57:00,86.8,65.3,30.13,ENE,69,4.0,4.0,49,0.00,,,0.00,VWS V13.01,2013-09-05 17:57:00,
2013-09-05 13:02:00,87.1,65.7,30.13,ENE,59,2.2,3.6,49,0.00,,,0.00,VWS V13.01,2013-09-05 18:02:00,
2013-09-05 13:07:00,87.5,65.4,30.13,East,83,4.0,4.0,48,0.00,,,0.00,VWS V13.01,2013-09-05 18:07:00,
2013-09-05 13:12:00,86.9,64.9,30.13,NNW,344,3.1,3.1,48,0.00,,,0.00,VWS V13.01,2013-09-05 18:12:00,
2013-09-05 13:17:00,87.1,65.1,30.13,North,11,2.7,2.7,48,0.00,,,0.00,VWS V13.01,2013-09-05 18:17:00,
2013-09-05 13:22:00,86.9,64.9,30.13,NNE,30,5.4,7.2,48,0.00,,,0.00,VWS V13.01,2013-09-05 18:22:00,
2013-09-05 13:27:00,87.1,65.1,30.13,NNE,15,3.1,3.6,48,0.00,,,0.00,VWS V13.01,2013-09-05 18:27:00,
2013-09-05 13:32:00,87.1,65.1,30.13,SE,124,3.6,6.3,48,0.00,,,0.00,VWS V13.01,2013-09-05 18:32:00,
2013-09-05 13:37:00,86.8,64.1,30.13,NNE,15,3.6,4.0,47,0.00,,,0.00,VWS V13.01,2013-09-05 18:37:00,
2013-09-05 13:42:00,87.1,65.1,30.13,WNW,302,5.4,5.4,48,0.00,,,0.00,VWS V13.01,2013-09-05 18:42:00,
2013-09-05 13:47:00,87.3,64.6,30.13,SE,130,2.7,6.3,47,0.00,,,0.00,VWS V13.01,2013-09-05 18:47:00,
2013-09-05 13:52:00,87.7,64.9,30.13,ENE,69,3.1,4.5,47,0.00,,,0.00,VWS V13.01,2013-09-05 18:52:00,
2013-09-05 13:57:00,87.3,64.6,30.13,ESE,123,0.0,4.0,47,0.00,,,0.00,VWS V13.01,2013-09-05 18:57:00,
2013-09-05 14:02:00,87.8,65.1,30.10,NNE,28,2.7,2.7,47,0.00,,,0.00,VWS V13.01,2013-09-05 19:02:00,
2013-09-05 14:07:00,88.7,65.9,30.10,NE,34,4.0,4.0,47,0.00,,,0.00,VWS V13.01,2013-09-05 19:07:00,
2013-09-05 14:12:00,88.4,65.0,30.10,NE,36,0.0,2.7,46,0.00,,,0.00,VWS V13.01,2013-09-05 19:12:00,
2013-09-05 14:17:00,88.9,65.5,30.10,NNE,29,2.2,4.0,46,0.00,,,0.00,VWS V13.01,2013-09-05 19:17:00,
2013-09-05 14:22:00,89.5,66.0,30.10,NE,37,3.6,4.9,46,0.00,,,0.00,VWS V13.01,2013-09-05 19:22:00,
2013-09-05 14:27:00,89.5,66.0,30.10,SE,135,5.8,5.8,46,0.00,,,0.00,VWS V13.01,2013-09-05 19:27:00,
2013-09-05 14:32:00,88.7,65.3,30.10,SSE,154,2.7,3.1,46,0.00,,,0.00,VWS V13.01,2013-09-05 19:32:00,
2013-09-05 14:37:00,89.1,65.6,30.10,North,7,3.6,4.9,46,0.00,,,0.00,VWS V13.01,2013-09-05 19:37:00,
2013-09-05 14:42:00,89.8,66.3,30.10,NW,320,2.7,4.9,46,0.00,,,0.00,VWS V13.01,2013-09-05 19:42:00,
2013-09-05 14:47:00,89.8,65.7,30.10,North,355,2.7,2.7,45,0.00,,,0.00,VWS V13.01,2013-09-05 19:47:00,
2013-09-05 14:51:00,90.2,66.0,30.10,SE,125,3.6,5.4,45,0.00,,,0.00,VWS V13.01,2013-09-05 19:51:00,
2013-09-05 14:56:00,90.4,66.2,30.10,NE,47,3.6,4.5,45,0.00,,,0.00,VWS V13.01,2013-09-05 19:56:00,
2013-09-05 15:01:00,90.5,66.3,30.10,NNE,16,2.7,3.6,45,0.00,,,0.00,VWS V13.01,2013-09-05 20:01:00,
2013-09-05 15:06:00,90.5,66.3,30.10,East,89,2.2,2.7,45,0.00,,,0.00,VWS V13.01,2013-09-05 20:06:00,
2013-09-05 15:11:00,90.4,66.2,30.10,South,172,5.4,5.4,45,0.00,,,0.00,VWS V13.01,2013-09-05 20:11:00,
2013-09-05 15:16:00,90.0,66.5,30.07,NNE,30,3.1,4.9,46,0.00,,,0.00,VWS V13.01,2013-09-05 20:16:00,
2013-09-05 15:21:00,90.7,67.1,30.07,ESE,122,4.0,5.4,46,0.00,,,0.00,VWS V13.01,2013-09-05 20:21:00,
2013-09-05 15:26:00,90.5,66.9,30.07,SSE,158,5.8,6.3,46,0.00,,,0.00,VWS V13.01,2013-09-05 20:26:00,
2013-09-05 15:31:00,89.6,66.1,30.07,ESE,123,3.6,4.0,46,0.00,,,0.00,VWS V13.01,2013-09-05 20:31:00,
2013-09-05 15:36:00,89.3,65.8,30.07,South,175,2.7,3.6,46,0.00,,,0.00,VWS V13.01,2013-09-05 20:36:00,
2013-09-05 15:41:00,89.3,65.8,30.07,SW,221,2.7,2.7,46,0.00,,,0.00,VWS V13.01,2013-09-05 20:41:00,
2013-09-05 15:46:00,89.3,65.8,30.07,West,259,3.1,4.0,46,0.00,,,0.00,VWS V13.01,2013-09-05 20:46:00,
2013-09-05 15:51:00,89.6,66.1,30.07,SW,228,2.2,2.2,46,0.00,,,0.00,VWS V13.01,2013-09-05 20:51:00,
2013-09-05 15:56:00,90.2,66.6,30.07,SE,130,3.6,4.0,46,0.00,,,0.00,VWS V13.01,2013-09-05 20:56:00,
2013-09-05 16:01:00,90.0,66.5,30.07,NNE,12,2.7,3.1,46,0.00,,,0.00,VWS V13.01,2013-09-05 21:01:00,
2013-09-05 16:06:00,90.0,66.5,30.07,South,186,2.7,2.7,46,0.00,,,0.00,VWS V13.01,2013-09-05 21:06:00,
2013-09-05 16:11:00,90.2,66.0,30.07,WSW,255,2.7,3.1,45,0.00,,,0.00,VWS V13.01,2013-09-05 21:11:00,
2013-09-05 16:16:00,90.2,66.6,30.07,WSW,245,2.2,3.1,46,0.00,,,0.00,VWS V13.01,2013-09-05 21:16:00,
2013-09-05 16:21:00,90.2,66.0,30.07,WSW,258,2.2,2.2,45,0.00,,,0.00,VWS V13.01,2013-09-05 21:21:00,
2013-09-05 16:26:00,90.9,66.6,30.07,SE,143,2.2,2.7,45,0.00,,,0.00,VWS V13.01,2013-09-05 21:26:00,
2013-09-05 16:31:00,90.7,67.1,30.07,South,183,4.0,4.0,46,0.00,,,0.00,VWS V13.01,2013-09-05 21:31:00,
2013-09-05 16:36:00,90.2,66.6,30.07,SE,130,3.6,3.6,46,0.00,,,0.00,VWS V13.01,2013-09-05 21:36:00,
2013-09-05 16:41:00,90.0,66.5,30.07,NE,46,2.7,2.7,46,0.00,,,0.00,VWS V13.01,2013-09-05 21:41:00,
2013-09-05 16:46:00,90.0,66.5,30.07,SE,124,3.6,3.6,46,0.00,,,0.00,VWS V13.01,2013-09-05 21:46:00,
2013-09-05 16:51:00,89.8,66.3,30.07,South,175,2.2,2.2,46,0.00,,,0.00,VWS V13.01,2013-09-05 21:51:00,
2013-09-05 16:56:00,90.2,66.6,30.07,SE,143,2.7,3.1,46,0.00,,,0.00,VWS V13.01,2013-09-05 21:56:00,
2013-09-05 17:01:00,90.2,66.6,30.07,ESE,115,2.7,2.7,46,0.00,,,0.00,VWS V13.01,2013-09-05 22:01:00,
2013-09-05 17:06:00,90.7,67.1,30.07,South,184,0.0,0.0,46,0.00,,,0.00,VWS V13.01,2013-09-05 22:06:00,
2013-09-05 17:11:00,91.8,67.4,30.07,ENE,74,0.0,0.0,45,0.00,,,0.00,VWS V13.01,2013-09-05 22:11:00,
2013-09-05 17:16:00,92.0,67.6,30.07,NNE,32,0.0,0.0,45,0.00,,,0.00,VWS V13.01,2013-09-05 22:16:00,
2013-09-05 17:21:00,92.2,67.8,30.07,East,85,0.0,0.0,45,0.00,,,0.00,VWS V13.01,2013-09-05 22:21:00,
2013-09-05 17:26:00,92.0,67.6,30.07,NE,49,2.2,3.1,45,0.00,,,0.00,VWS V13.01,2013-09-05 22:26:00,
2013-09-05 17:31:00,91.4,67.1,30.07,SE,125,0.0,0.0,45,0.00,,,0.00,VWS V13.01,2013-09-05 22:31:00,
2013-09-05 17:36:00,91.4,67.1,30.07,ESE,109,0.0,0.0,45,0.00,,,0.00,VWS V13.01,2013-09-05 22:36:00,
2013-09-05 17:41:00,91.3,67.0,30.07,NE,34,2.7,2.7,45,0.00,,,0.00,VWS V13.01,2013-09-05 22:41:00,
2013-09-05 17:46:00,90.7,66.5,30.07,ENE,57,2.2,2.2,45,0.00,,,0.00,VWS V13.01,2013-09-05 22:46:00,
2013-09-05 17:51:00,90.5,66.9,30.07,ENE,67,2.2,2.2,46,0.00,,,0.00,VWS V13.01,2013-09-05 22:51:00,
2013-09-05 17:56:00,90.2,66.6,30.07,NE,35,4.0,4.0,46,0.00,,,0.00,VWS V13.01,2013-09-05 22:56:00,
2013-09-05 18:01:00,89.6,66.1,30.07,NNE,26,4.9,4.9,46,0.00,,,0.00,VWS V13.01,2013-09-05 23:01:00,
2013-09-05 18:06:00,89.3,65.8,30.07,NE,51,4.0,4.0,46,0.00,,,0.00,VWS V13.01,2013-09-05 23:06:00,
2013-09-05 18:11:00,89.1,65.6,30.07,NE,48,2.7,3.6,46,0.00,,,0.00,VWS V13.01,2013-09-05 23:11:00,
2013-09-05 18:16:00,89.1,65.6,30.07,NNE,19,4.0,4.0,46,0.00,,,0.00,VWS V13.01,2013-09-05 23:16:00,
2013-09-05 18:21:00,89.1,65.6,30.07,NNE,25,2.7,4.0,46,0.00,,,0.00,VWS V13.01,2013-09-05 23:21:00,
2013-09-05 18:26:00,88.6,65.8,30.07,NE,50,3.6,3.6,47,0.00,,,0.00,VWS V13.01,2013-09-05 23:26:00,
2013-09-05 18:31:00,88.0,65.3,30.04,NNE,20,4.0,4.0,47,0.00,,,0.00,VWS V13.01,2013-09-05 23:31:00,
2013-09-05 18:36:00,87.5,64.8,30.04,NE,36,4.0,4.9,47,0.00,,,0.00,VWS V13.01,2013-09-05 23:36:00,
2013-09-05 18:41:00,86.9,64.9,30.04,NNE,24,2.7,2.7,48,0.00,,,0.00,VWS V13.01,2013-09-05 23:41:00,
2013-09-05 18:46:00,86.6,64.6,30.04,NNE,17,3.1,3.1,48,0.00,,,0.00,VWS V13.01,2013-09-05 23:46:00,
2013-09-05 18:51:00,86.4,65.0,30.04,NNE,27,3.1,3.1,49,0.00,,,0.00,VWS V13.01,2013-09-05 23:51:00,
2013-09-05 18:56:00,86.0,64.7,30.04,NE,37,2.7,2.7,49,0.00,,,0.00,VWS V13.01,2013-09-05 23:56:00,
2013-09-05 19:01:00,85.5,64.2,30.04,ENE,67,3.1,4.0,49,0.00,,,0.00,VWS V13.01,2013-09-06 00:01:00,
2013-09-05 19:06:00,85.3,64.6,30.04,NNE,31,3.1,3.1,50,0.00,,,0.00,VWS V13.01,2013-09-06 00:06:00,
2013-09-05 19:11:00,85.0,64.3,30.04,NNE,28,2.7,2.7,50,0.00,,,0.00,VWS V13.01,2013-09-06 00:11:00,
2013-09-05 19:16:00,84.4,64.3,30.04,NNE,29,2.7,2.7,51,0.00,,,0.00,VWS V13.01,2013-09-06 00:16:00,
2013-09-05 19:21:00,84.1,64.0,30.04,NNE,29,0.0,0.0,51,0.00,,,0.00,VWS V13.01,2013-09-06 00:21:00,
2013-09-05 19:26:00,83.7,63.7,30.04,NNE,29,3.1,3.1,51,0.00,,,0.31,VWS V13.01,2013-09-06 00:26:00,
2013-09-05 19:31:00,83.2,63.7,30.04,North,3,2.7,2.7,52,0.00,,,0.00,VWS V13.01,2013-09-06 00:31:00,
2013-09-05 19:36:00,82.8,63.9,30.04,North,4,0.0,2.2,53,0.00,,,0.00,VWS V13.01,2013-09-06 00:36:00,
2013-09-05 19:41:00,82.3,63.4,30.04,NNE,19,2.2,2.2,53,0.00,,,0.00,VWS V13.01,2013-09-06 00:41:00,
2013-09-05 19:46:00,81.9,63.6,30.07,NNE,32,2.7,2.7,54,0.00,,,0.00,VWS V13.01,2013-09-06 00:46:00,
2013-09-05 19:51:00,81.5,63.8,30.07,NNE,27,2.2,2.2,55,0.00,,,0.00,VWS V13.01,2013-09-06 00:51:00,
2013-09-05 19:56:00,81.0,63.8,30.07,North,9,0.0,3.1,56,0.00,,,0.00,VWS V13.01,2013-09-06 00:56:00,
2013-09-05 20:01:00,80.5,63.8,30.07,NNE,31,2.7,2.7,57,0.00,,,0.00,VWS V13.01,2013-09-06 01:01:00,
2013-09-05 20:06:00,79.9,63.8,30.07,NNE,26,2.2,2.7,58,0.00,,,0.00,VWS V13.01,2013-09-06 01:06:00,
2013-09-05 20:11:00,79.7,63.7,30.07,NNE,24,0.0,2.7,58,0.00,,,0.00,VWS V13.01,2013-09-06 01:11:00,
2013-09-05 20:16:00,79.4,63.3,30.07,NNE,29,3.6,3.6,58,0.00,,,0.00,VWS V13.01,2013-09-06 01:16:00,
2013-09-05 20:21:00,79.0,63.0,30.07,NNE,32,0.0,2.7,58,0.00,,,0.00,VWS V13.01,2013-09-06 01:21:00,
2013-09-05 20:26:00,78.5,63.0,30.07,NNE,32,0.0,0.0,59,0.00,,,0.00,VWS V13.01,2013-09-06 01:26:00,
2013-09-05 20:31:00,77.8,62.3,30.07,NNE,15,2.7,2.7,59,0.00,,,0.00,VWS V13.01,2013-09-06 01:31:00,
2013-09-05 20:36:00,77.6,62.6,30.07,NNE,17,2.7,3.1,60,0.00,,,0.00,VWS V13.01,2013-09-06 01:36:00,
2013-09-05 20:41:00,77.4,62.4,30.07,NNE,24,3.1,3.1,60,0.00,,,0.00,VWS V13.01,2013-09-06 01:41:00,
2013-09-05 20:46:00,77.2,62.3,30.07,NNE,24,0.0,2.7,60,0.00,,,0.00,VWS V13.01,2013-09-06 01:46:00,
2013-09-05 20:51:00,76.9,61.9,30.07,NNE,28,0.0,0.0,60,0.00,,,0.00,VWS V13.01,2013-09-06 01:51:00,
2013-09-05 20:56:00,76.7,61.8,30.07,NNE,28,0.0,0.0,60,0.00,,,0.00,VWS V13.01,2013-09-06 01:56:00,
2013-09-05 21:01:00,76.3,61.9,30.10,NNE,28,0.0,0.0,61,0.00,,,0.00,VWS V13.01,2013-09-06 02:01:00,
2013-09-05 21:06:00,76.1,61.7,30.10,NNE,29,0.0,0.0,61,0.00,,,0.00,VWS V13.01,2013-09-06 02:06:00,
2013-09-05 21:11:00,76.0,61.6,30.10,NNE,29,0.0,0.0,61,0.00,,,0.00,VWS V13.01,2013-09-06 02:11:00,
2013-09-05 21:16:00,75.6,61.2,30.10,NNE,29,0.0,0.0,61,0.00,,,0.00,VWS V13.01,2013-09-06 02:16:00,
2013-09-05 21:21:00,75.2,60.9,30.10,NNE,29,0.0,0.0,61,0.00,,,0.00,VWS V13.01,2013-09-06 02:21:00,
2013-09-05 21:26:00,74.9,61.0,30.10,NNE,28,0.0,0.0,62,0.00,,,0.00,VWS V13.01,2013-09-06 02:26:00,
2013-09-05 21:31:00,74.5,61.1,30.10,NNE,28,0.0,0.0,63,0.00,,,0.00,VWS V13.01,2013-09-06 02:31:00,
2013-09-05 21:36:00,74.2,61.2,30.10,NNE,28,0.0,0.0,64,0.00,,,0.00,VWS V13.01,2013-09-06 02:36:00,
2013-09-05 21:41:00,74.0,61.0,30.10,NNE,28,0.0,0.0,64,0.00,,,0.00,VWS V13.01,2013-09-06 02:41:00,
2013-09-05 21:45:00,73.8,60.9,30.07,NNE,28,0.0,0.0,64,0.00,,,0.00,VWS V13.01,2013-09-06 02:45:00,
2013-09-05 21:50:00,73.4,60.5,30.07,NNE,29,0.0,0.0,64,0.00,,,0.00,VWS V13.01,2013-09-06 02:50:00,
2013-09-05 21:56:00,72.9,60.9,30.07,NNE,29,0.0,0.0,66,0.00,,,0.00,VWS V13.01,2013-09-06 02:56:00,
2013-09-05 22:01:00,72.2,61.0,30.10,NNE,29,0.0,0.0,68,0.00,,,0.00,VWS V13.01,2013-09-06 03:01:00,
2013-09-05 22:06:00,71.8,61.5,30.10,NNE,29,0.0,0.0,70,0.00,,,0.00,VWS V13.01,2013-09-06 03:06:00,
2013-09-05 22:11:00,71.6,61.3,30.10,NNE,29,0.0,0.0,70,0.00,,,0.00,VWS V13.01,2013-09-06 03:11:00,
2013-09-05 22:16:00,71.3,61.4,30.10,NNE,29,0.0,0.0,71,0.00,,,0.00,VWS V13.01,2013-09-06 03:16:00,
2013-09-05 22:21:00,71.1,61.6,30.10,NNE,29,0.0,0.0,72,0.00,,,0.00,VWS V13.01,2013-09-06 03:21:00,
2013-09-05 22:26:00,70.9,61.8,30.10,NNE,29,0.0,0.0,73,0.00,,,0.00,VWS V13.01,2013-09-06 03:26:00,
2013-09-05 22:31:00,70.9,62.2,30.10,NNE,29,0.0,0.0,74,0.00,,,0.00,VWS V13.01,2013-09-06 03:31:00,
2013-09-05 22:36:00,70.7,62.0,30.10,NNE,29,0.0,0.0,74,0.00,,,0.00,VWS V13.01,2013-09-06 03:36:00,
2013-09-05 22:41:00,70.6,61.9,30.10,NNE,29,0.0,0.0,74,0.00,,,0.00,VWS V13.01,2013-09-06 03:41:00,
2013-09-05 22:46:00,70.4,61.7,30.10,NNE,29,0.0,0.0,74,0.00,,,0.00,VWS V13.01,2013-09-06 03:46:00,
2013-09-05 22:51:00,70.0,61.7,30.10,NNE,29,0.0,0.0,75,0.00,,,0.00,VWS V13.01,2013-09-06 03:51:00,
2013-09-05 22:56:00,69.8,61.6,30.10,NNE,29,0.0,0.0,75,0.00,,,0.00,VWS V13.01,2013-09-06 03:56:00,
2013-09-05 23:01:00,69.7,62.1,30.10,NNE,29,0.0,0.0,77,0.00,,,0.00,VWS V13.01,2013-09-06 04:01:00,
2013-09-05 23:02:00,69.7,62.1,30.10,NNE,29,0.0,0.0,77,0.00,,,0.00,VWS V13.01,2013-09-06 04:02:00,
2013-09-05 23:07:00,69.3,61.4,30.10,NNE,29,0.0,0.0,76,0.00,,,0.00,VWS V13.01,2013-09-06 04:07:00,
2013-09-05 23:12:00,69.1,61.2,30.10,NNE,29,0.0,0.0,76,0.00,,,0.00,VWS V13.01,2013-09-06 04:12:00,
2013-09-05 23:17:00,69.1,61.2,30.13,NNE,29,0.0,0.0,76,0.00,,,0.00,VWS V13.01,2013-09-06 04:17:00,
2013-09-05 23:22:00,68.8,61.3,30.13,NNE,29,0.0,0.0,77,0.00,,,0.00,VWS V13.01,2013-09-06 04:22:00,
2013-09-05 23:27:00,68.4,60.9,30.13,NNE,29,0.0,0.0,77,0.00,,,0.00,VWS V13.01,2013-09-06 04:27:00,
2013-09-05 23:32:00,68.0,61.3,30.13,NNE,29,0.0,0.0,79,0.00,,,0.00,VWS V13.01,2013-09-06 04:32:00,
2013-09-05 23:37:00,67.5,61.1,30.13,NNE,29,0.0,0.0,80,0.00,,,0.00,VWS V13.01,2013-09-06 04:37:00,
2013-09-05 23:42:00,67.1,61.5,30.13,NNE,29,0.0,0.0,82,0.00,,,0.00,VWS V13.01,2013-09-06 04:42:00,
2013-09-05 23:47:00,66.6,61.6,30.10,NNE,29,0.0,0.0,84,0.00,,,0.00,VWS V13.01,2013-09-06 04:47:00,
2013-09-05 23:52:00,66.2,61.3,30.10,NNE,29,0.0,0.0,84,0.00,,,0.00,VWS V13.01,2013-09-06 04:52:00,
2013-09-05 23:57:00,66.2,61.9,30.10,NNE,29,0.0,0.0,86,0.00,,,0.00,VWS V13.01,2013-09-06 04:57:00,